Flag for U.S.A. Weather past 2 weeks in Naples, Florida, U.S.A.

Now
83 °F

Thundershowers. Partly cloudy.


Feels Like: 93 °F
Forecast: 79 / 89 °F
Wind: 5 mph from South

Location: Naples Municipal

Current Time: Aug 1, 2015 at 2:39:48 AM

Latest Report: Aug 1, 2015 at 2:00 AM


Visibility: 9 mi

Pressure: 30.01 "Hg

Humidity: 85%

Dew point: 78 °F

Location of NaplesLocation

Historic Weather in Naples — Graph

°F

Naples temperature yesterday

Maximum temperature yesterday: 91 °F (at 2:53 PM)
Minimum temperature yesterday: 83 °F (at 5:53 AM)
Average temperature yesterday: 87 °F

Past Weeks' High & Low Weather Summary

 TemperatureHumidityPressure
High91 °F (Jul 31, 2:53 PM)100% (Jul 25, 2:57 PM)30.09 "Hg (Jul 25, 2:57 PM)
Low76 °F (Jul 17, 3:53 AM)52% (Jul 19, 2:53 PM)29.86 "Hg (Jul 26, 4:53 AM)
Average84 °F78%30.00 "Hg
* Reported Jul 17 12:53 AM — Aug 1 12:53 AM, Naples, Weather by CustomWeather, © 2015

Note: Actual official high and low records may vary slightly from our data, if they occured in-between our weather recording intervals... More about our weather records

Advertising

Naples weather history for previous 24 hours

 ConditionsComfort  
Time TempWeatherWind HumidityBarometerVisibility
12:53 AM
Sat, Aug 1
83 °FClear.5 mph82%30.03 "Hg9 mi
11:53 PM
Fri, Jul 31
83 °FPassing clouds.8 mph85%30.02 "Hg9 mi
10:53 PM86 °FClear.6 mph77%30.02 "Hg9 mi
9:53 PM86 °FClear.5 mph77%30.01 "Hg10 mi
8:53 PM87 °FPassing clouds.6 mph77%29.99 "Hg10 mi
7:53 PM87 °FSunny.8 mph75%29.97 "Hg9 mi
6:53 PM89 °FPassing clouds.6 mph70%29.97 "Hg10 mi
5:53 PM89 °FPassing clouds.8 mph70%29.96 "Hg10 mi
4:53 PM90 °FPassing clouds.12 mph68%29.97 "Hg10 mi
3:53 PM90 °FSunny.9 mph66%29.99 "Hg10 mi
2:53 PM91 °FSunny.13 mph61%30.00 "Hg10 mi
1:53 PM90 °FSunny.9 mph66%30.01 "Hg10 mi
12:53 PM90 °FSunny.12 mph68%30.01 "Hg10 mi
11:53 AM89 °FPassing clouds.12 mph70%30.03 "Hg10 mi
10:53 AM89 °FSunny.9 mph68%30.02 "Hg10 mi
9:53 AM88 °FSunny.10 mph73%30.02 "Hg10 mi
8:53 AM87 °FPassing clouds.7 mph77%30.02 "Hg10 mi
7:53 AM84 °FPassing clouds.3 mph83%30.01 "Hg10 mi
6:53 AM83 °FClear.5 mph82%29.99 "Hg10 mi
5:53 AM83 °FClear.6 mph82%29.98 "Hg10 mi
4:53 AM84 °FClear.6 mph80%29.97 "Hg10 mi
3:53 AM84 °FClear.6 mph77%29.97 "Hg10 mi
2:53 AM84 °FClear.7 mph77%29.98 "Hg10 mi
Weather by CustomWeather, © 2015

See weather overviewHow to use our weather pages